A/2024 W2

Japanese version
Home page
Updated on March 4, 2025

---------------------------------------------------------------------

* Profile

Discovery Date November 26, 2024
Magnitude 21.58 mag
Discoverer Mt. Lemmon Survey

* Orbital Elements

Epoch 2025 May 5.0 TT = JDT 2460800.5
T 2025 Feb. 27.44365 TT                                 Pike
q   3.7206941            (2000.0)            P               Q
z  -0.0007785      Peri.  168.00752     +0.37798213     +0.48454226
 +/-0.0000726      Node   241.93893     +0.75825522     +0.32689258
e   1.0028967      Incl.  116.62216     +0.53120479     -0.81139389
H    15.
From 38 observations 2024 Nov. 26-2025 Feb. 3, mean residual 0".5.

* Magnitudes Graph

        H = 15.6  G = 0.15

---------------------------------------------------------------------

The orbital elements are published on M.P.E.C. 2025-C143.
The magnitudes graphs are made with Comet for Windows.

---------------------------------------------------------------------

Copyright(C) Seiichi Yoshida (comet@aerith.net). All rights reserved.